Weather History for Cape Newenham, AK

Change the Weather History Date:

Saturday, September 8, 2012

  Actual Average Record
Temperature  
Mean Temperature 45 °F -  
Max Temperature 48 °F 49 °F 59 °F (1997)
Min Temperature 42 °F 43 °F 42 °F (2001)
Degree Days  
Heating Degree Days 20    
Moisture  
Dew Point 43 °F    
Average Humidity 91    
Maximum Humidity 100    
Minimum Humidity 79    
Precipitation  
Precipitation 0.00 in - - ()
Sea Level Pressure  
Sea Level Pressure 30.05 in    
Wind  
Wind Speed 10 mph (North)    
Max Wind Speed 18 mph    
Max Gust Speed -    
Visibility 10 miles    
Events Rain , Thunderstorm    
Averages and records for this station are not official NWS values.
T = Trace of Precipitation, MM = Missing Value Source: NWS Daily Summary

Daily Weather History Graph

Daily Weather History Graph

Search for Another Location

Airport:

Trip Planner

Search our weather history database for the weather conditions in past years. The results will help you decide how hot, cold, wet, or windy it might be!

Date:

Astronomy

Sep. 08, 2012 Rise Set
Actual Time 8:03 AM AKDT 9:26 PM AKDT
Civil Twilight 7:22 AM AKDT 10:07 PM AKDT
Nautical Twilight 6:30 AM AKDT 10:58 PM AKDT
Astronomical Twilight 5:30 AM AKDT 11:57 PM AKDT
Moon No Moon Rise 5:38 PM AKDT (9/8)
Length of Visible Light 14h 45m
Length of Day
13h 22m
Waning Gibbous, 47% of the Moon is Illuminated
Sep 8
Waning Gibbous
Sep 15
New
Sep 22
First Quarter
Sep 29
Full
Oct 7
Last Quarter

Hourly Weather History & Observations

Time (AKDT) Temp. Windchill Dew Point Humidity Pressure Visibility Wind Dir Wind Speed Gust Speed Precip Events Conditions
12:24 AM 42.8 °F 38.6 °F 42.8 °F 100% 29.90 in 7.0 mi NW 6.9 mph - N/A Rain Light Rain Showers
12:44 AM - - - N/A% 29.90 in 5.0 mi Variable 4.6 mph - N/A Rain Light Rain Showers
12:55 AM 43.9 °F 41.3 °F 43.7 °F 99% 29.90 in 8.0 mi NNW 4.6 mph - 0.00 in Rain Light Rain Showers
1:04 AM 44.6 °F 43.1 °F 42.8 °F 93% 29.90 in 10.0 mi NW 3.5 mph - N/A   Mostly Cloudy
1:24 AM 44.6 °F - 42.8 °F 93% 29.90 in 10.0 mi Variable 1.2 mph - N/A   Mostly Cloudy
1:55 AM 43.7 °F 39.7 °F 43.7 °F 100% 29.91 in 10.0 mi NE 6.9 mph - N/A   Mostly Cloudy
2:24 AM 44.6 °F 41.4 °F 44.6 °F 100% 29.92 in 10.0 mi NNE 5.8 mph - N/A   Mostly Cloudy
2:44 AM 44.6 °F 39.7 °F 42.8 °F 93% 29.93 in 10.0 mi North 9.2 mph - N/A Thunderstorm Mostly Cloudy
2:55 AM 44.2 °F 38.8 °F 43.2 °F 96% 29.93 in 10.0 mi North 10.4 mph - N/A   Mostly Cloudy
3:04 AM 44.6 °F 38.8 °F 42.8 °F 93% 29.92 in 9.0 mi NNE 11.5 mph - N/A Rain Light Rain Showers
3:24 AM 44.6 °F 38.4 °F 41.0 °F 87% 29.94 in 10.0 mi North 12.7 mph - N/A   Mostly Cloudy
3:44 AM 44.6 °F 38.4 °F 41.0 °F 87% 29.95 in 10.0 mi North 12.7 mph - N/A Thunderstorm Mostly Cloudy
3:55 AM 44.6 °F 37.8 °F 41.0 °F 87% 29.96 in 10.0 mi North 15.0 mph - N/A   Mostly Cloudy
4:24 AM 44.6 °F 38.4 °F 41.0 °F 87% 29.96 in 10.0 mi NNE 12.7 mph - N/A   Mostly Cloudy
4:55 AM 43.9 °F 37.9 °F 42.1 °F 93% 29.97 in 10.0 mi NNE 11.5 mph - N/A   Mostly Cloudy
5:44 AM 42.8 °F 38.0 °F 42.8 °F 100% 29.99 in 10.0 mi North 8.1 mph - N/A   Mostly Cloudy
5:55 AM 42.8 °F 38.6 °F 41.9 °F 97% 29.99 in 10.0 mi North 6.9 mph - N/A   Mostly Cloudy
6:24 AM 42.8 °F 39.3 °F 42.8 °F 100% 30.00 in 10.0 mi NNE 5.8 mph - N/A   Mostly Cloudy
6:55 AM 43.7 °F 39.7 °F 42.4 °F 95% 30.01 in 10.0 mi NNE 6.9 mph - N/A   Mostly Cloudy
7:24 AM 44.6 °F 40.7 °F 42.8 °F 93% 30.02 in 10.0 mi North 6.9 mph - N/A   Mostly Cloudy
7:44 AM 44.6 °F 40.7 °F 42.8 °F 93% 30.02 in 10.0 mi North 6.9 mph - N/A Rain Light Rain Showers
7:55 AM 44.2 °F 41.0 °F 43.5 °F 97% 30.03 in 10.0 mi NNE 5.8 mph - N/A   Mostly Cloudy
8:44 AM 46.4 °F 42.9 °F 44.6 °F 93% 30.04 in 10.0 mi NNE 6.9 mph - N/A Rain Light Rain Showers
8:55 AM 45.7 °F 41.0 °F 44.8 °F 97% 30.04 in 10.0 mi NNE 9.2 mph - N/A Rain Light Rain Showers
9:04 AM 46.4 °F 41.1 °F 44.6 °F 93% 30.04 in 10.0 mi North 11.5 mph - N/A   Mostly Cloudy
9:24 AM 46.4 °F 40.7 °F 44.6 °F 93% 30.05 in 10.0 mi North 12.7 mph - N/A   Mostly Cloudy
9:44 AM 46.4 °F 40.1 °F 44.6 °F 93% 30.06 in 10.0 mi North 15.0 mph - N/A   Mostly Cloudy
9:55 AM 46.6 °F - 44.4 °F 92% 30.06 in 10.0 mi North 13.8 mph - N/A   Mostly Cloudy
10:44 AM 46.4 °F 40.7 °F 44.6 °F 93% 30.07 in 10.0 mi North 12.7 mph - N/A   Mostly Cloudy
10:55 AM 45.7 °F 38.8 °F 43.5 °F 92% 30.07 in 10.0 mi North 16.1 mph - N/A   Mostly Cloudy
11:44 AM 46.4 °F 41.1 °F 44.6 °F 93% 30.09 in 10.0 mi North 11.5 mph - N/A   Mostly Cloudy
11:55 AM 45.7 °F 39.5 °F 44.8 °F 97% 30.09 in 10.0 mi North 13.8 mph - N/A   Mostly Cloudy
12:55 PM 46.2 °F 41.2 °F 46.0 °F 99% 30.10 in 10.0 mi North 10.4 mph - N/A   Mostly Cloudy
1:44 PM 46.4 °F 40.7 °F 44.6 °F 93% 30.11 in 10.0 mi NNW 12.7 mph - N/A   Mostly Cloudy
1:55 PM 46.9 °F - 44.1 °F 90% 30.11 in 10.0 mi NNW 13.8 mph - N/A   Mostly Cloudy
2:55 PM 47.8 °F - 44.2 °F 87% 30.12 in 10.0 mi NNW 15.0 mph - N/A   Mostly Cloudy
3:55 PM 47.3 °F - 44.4 °F 90% 30.12 in 10.0 mi NNW 16.1 mph - N/A   Mostly Cloudy
4:24 PM 48.2 °F - 44.6 °F 87% 30.12 in 10.0 mi NNW 15.0 mph - N/A   Mostly Cloudy
4:55 PM 47.5 °F - 45.0 °F 91% 30.12 in 10.0 mi North 16.1 mph - N/A   Mostly Cloudy
5:44 PM 48.2 °F - 46.4 °F 93% 30.12 in 10.0 mi NNW 15.0 mph - N/A   Overcast
5:55 PM 47.7 °F - 45.1 °F 91% 30.12 in 10.0 mi NNW 16.1 mph - N/A   Overcast
6:24 PM 48.2 °F - 44.6 °F 87% 30.12 in 10.0 mi North 17.3 mph - N/A   Mostly Cloudy
6:44 PM 46.4 °F 40.1 °F 44.6 °F 93% 30.13 in 10.0 mi NNW 15.0 mph - N/A   Overcast
6:55 PM 46.9 °F - 43.2 °F 87% 30.13 in 10.0 mi NNW 17.3 mph - N/A   Mostly Cloudy
7:24 PM 46.4 °F 39.2 °F 42.8 °F 87% 30.13 in 10.0 mi NNW 18.4 mph - N/A   Overcast
7:55 PM 46.8 °F - 43.2 °F 87% 30.13 in 10.0 mi NNW 16.1 mph - N/A   Overcast
8:44 PM 46.4 °F 39.5 °F 42.8 °F 87% 30.13 in 10.0 mi NNW 17.3 mph - N/A   Overcast
8:55 PM 46.6 °F - 43.3 °F 88% 30.14 in 10.0 mi NNW 13.8 mph - N/A   Overcast
9:04 PM 46.4 °F 40.1 °F 42.8 °F 87% 30.14 in 10.0 mi NNW 15.0 mph - N/A   Overcast
9:24 PM 46.4 °F 39.8 °F 42.8 °F 87% 30.14 in 10.0 mi NNW 16.1 mph - N/A   Overcast
9:44 PM 46.4 °F 39.5 °F 42.8 °F 87% 30.14 in 10.0 mi North 17.3 mph - N/A   Mostly Cloudy
9:55 PM 46.6 °F - 42.3 °F 85% 30.14 in 10.0 mi NNW 15.0 mph - N/A   Mostly Cloudy
10:24 PM 46.4 °F 40.1 °F 41.0 °F 81% 30.14 in 10.0 mi North 15.0 mph - N/A   Mostly Cloudy
10:55 PM 46.4 °F 39.8 °F 40.1 °F 79% 30.14 in 10.0 mi North 16.1 mph - N/A   Overcast
11:44 PM 46.4 °F 39.8 °F 41.0 °F 81% 30.15 in 10.0 mi NNW 16.1 mph - N/A   Overcast
11:55 PM 45.9 °F 39.1 °F 40.3 °F 81% 30.15 in 10.0 mi NNW 16.1 mph - N/A   Overcast